Location: Carr Cemetery
(35.0965°N, 88.6917°W)
Time: 13:30:02
(UTC+00:00)

Daily predictions for brighter satellites

Satellite Brightness Start Highest point End
(mag) Time Altitude Azimuth Time Altitude Azimuth Time Altitude Azimuth
ATLAS 5 CENTAUR R/B 3.0 23:39:45 10° WSW 23:43:36 36° NW 23:47:49 10° NNE
SL-4 R/B 3.5 23:42:49 10° NNW 23:45:36 19° NNE 23:48:15 10° ENE
COBE Rocket 4.0 23:40:58 10° NNE 23:46:08 72° E 23:51:10 10° S
Cosmos 1271 Rocket 3.4 23:44:50 10° NNE 23:48:29 34° ENE 23:52:09 10° SE
SMAP 3.9 23:44:33 10° S 23:49:06 57° W 23:53:42 10° NNW
Cosmos 1758 Rocket 3.6 23:45:01 10° N 23:49:25 60° E 23:53:50 10° SSE
Cosmos 1626 2.5 23:50:33 10° NNW 23:54:16 69° W 23:57:57 10° S
Cosmos 1726 2.8 23:52:23 10° SSE 23:55:38 30° E 23:58:52 10° NNE
